Hourly Data Report for October 26, 2015

All times are specified in Local Standard Time (LST). Add 1 hour to adjust for Daylight Saving Time where and when it is observed.

ST LEONARD CS
NEW BRUNSWICK

47°09'28.050" N
67°49'55.014" W
245.00 m
810I001
71019
WIY

Download Data

Hourly Data (October 2015)
Hourly Data Report for October 26, 2015
Temp Definition
°C
Dew Point Temp Definition
°C
Rel Hum Definition
%
Wind Dir Definition
10's deg

Wind Spd Definition
km/h
Visibility Definition
km
Stn Press Definition
kPa
Hmdx Definition


Wind Chill Definition


Weather Definition


TIME
00:00 1.6 -0.2 88 31 13   98.91     LegendNANA
01:00 1.0 -1.4 84 31 16   99.01     LegendNANA
02:00 -0.1 -2.2 86 32 17   99.08   -5 LegendNANA
03:00 -0.5 -2.5 87 32 13   99.14   -5 LegendNANA
04:00 -1.2 -3.0 87 32 13   99.18   -5 LegendNANA
05:00 -0.7 -3.3 83 32 20   99.26   -6 LegendNANA
06:00 -1.3 -4.4 79 33 18   99.34   -7 LegendNANA
07:00 -1.0 -4.9 75 32 18   99.44   -6 LegendNANA
08:00 -1.3 -4.1 81 30 15   99.55   -6 LegendNANA
09:00 -1.3 -4.6 78 30 16   99.62   -6 LegendNANA
10:00 -0.4 -6.5 63 33 23   99.66   -6 LegendNANA
11:00 0.3 -6.6 60 32 21   99.70     LegendNANA
12:00 0.7 -7.3 55 30 23   99.73     LegendNANA
13:00 1.3 -7.8 51 31 24   99.74     LegendNANA
14:00 1.6 -8.3 48 29 26   99.76     LegendNANA
15:00 1.3 -8.6 47 30 23   99.76     LegendNANA
16:00 0.9 -8.3 50 30 21   99.77     LegendNANA
17:00 0.4 -8.8 50 31 12   99.80     LegendNANA
18:00 -1.3 -7.7 61 30 8   99.85   -4 LegendNANA
19:00 -2.9 -6.5 76 27 4   99.89   -4 LegendNANA
20:00 -3.5 -6.3 81 23 3   99.92   -5 LegendNANA
21:00 -4.5 -6.2 88 31 2   99.95   -5 LegendNANA
22:00 -4.6 -6.7 85 19 3   99.99   -6 LegendNANA
23:00 -5.3 -6.4 92 16 6   100.02   -8 LegendNANA

Notes on Data Quality.

Legend

  • E = Estimated
  • M = Missing
  • NA = Not Available
  • ‡ = Partner data that is not subject to review by the National Climate Archives
Date modified: